Location: Poughquag
(41.6090°N, 73.6820°W)
Time: 08:53:46
(UTC-05:00)

SR - Pass Details

Date: 16 December 2023
Orbit: 574 x 868 km, 66.7° (Epoch: 25 February)

Event Time Altitude Azimuth Distance (km) Brightness Sun altitude
Rises 10:44:07 0° 273° (W) 3,378 ? 23.3°
Reaches altitude 10° 10:48:10 10° 301° (WNW) 2,488 ? 23.5°
Maximum altitude 10:50:38 13° 327° (NNW) 2,313 ? 23.6°
Drops below altitude 10° 10:53:09 10° 352° (N) 2,518 ? 23.7°
Sets 10:57:20 0° 20° (NNE) 3,460 ? 23.9°
